Location: Doverdale
(52.2833°N, 2.2000°W)
Time: 03:22:27
(UTC+00:00)

CZ-4 R/B - Pass Details

Date: 29 October 2020
Orbit: 532 x 598 km, 97.7° (Epoch: 27 November)

Event Time Altitude Azimuth Distance (km) Brightness Sun altitude
Rises 17:25:59 0° 129° (SE) 2,692 4.5 -6.9°
Reaches altitude 10° 17:28:26 10° 114° (ESE) 1,797 3.5 -7.2°
Maximum altitude 17:31:27 22° 62° (ENE) 1,197 2.5 -7.7°
Drops below altitude 10° 17:34:29 10° 11° (N) 1,798 3.7 -8.1°
Sets 17:36:55 0° 356° (N) 2,693 4.8 -8.5°
